Location: Lucerne Valley
(34.4439°N, 116.9669°E)
Time: 17:07:17
(UTC-07:00)

ISS - Pass Details

Date: 12 October 2017
Orbit: 401 x 408 km, 51.6° (Epoch: 17 October)

Event Time Altitude Azimuth Distance (km) Brightness Sun altitude
Rises 04:15:14 0° 322° (NW) 2,321 0.6 -20.0°
Reaches altitude 10° 04:17:32 10° 336° (NNW) 1,461 -0.7 -20.5°
Enters shadow 04:19:05 20° 359° (N) 997 -1.8 -20.8°
